Location: Dead Woman Crossing
(43.5369°N, 106.3228°W)
Time: 07:06:43
(UTC+00:00)

NANOSAT C BR1 - Pass Details

Date: 29 June 2022
Orbit: 584 x 599 km, 98.0° (Epoch: 17 August)

Event Time Altitude Azimuth Distance (km) Brightness Sun altitude
Rises 08:56:09 0° 17° (NNE) 2,848 ? -18.8°
Reaches altitude 10° 08:58:22 10° 22° (NNE) 1,943 ? -18.7°
Maximum altitude 09:02:30 54° 100° (E) 735 ? -18.3°
Enters shadow 09:04:22 29° 164° (SSE) 1,097 ? -18.2°
